This is the latest recevied weather packets stored in our database for station/object DM4XI-13. If no packets are shown the sender has not sent any weather packets the latest 10 day(s).
| Time | Temp. | Humidity | Pressure | Rain* | Wind** | Luminosity | Snow |
|---|---|---|---|---|---|---|---|
| 1778139302 | 11.67° C | 83% | 1009.8 hPa | 0 mm | 0.89 m/s, 198° | 179 W/m² | - |
| 1778139241 | 11.67° C | 84% | 1009.6 hPa | 0 mm | 0.45 m/s, 187° | 178 W/m² | - |
| 1778139181 | 11.67° C | 84% | 1009.7 hPa | 0 mm | 0.89 m/s, 206° | 232 W/m² | - |
| 1778139119 | 11.67° C | 84% | 1009.7 hPa | 0 mm | 0.89 m/s, 194° | 487 W/m² | - |
| 1778139058 | 11.67° C | 83% | 1009.8 hPa | 0 mm | 1.34 m/s, 204° | 330 W/m² | - |
| 1778138997 | 11.67° C | 83% | 1009.7 hPa | 0 mm | 1.34 m/s, 178° | 284 W/m² | - |
| 1778138936 | 11.67° C | 83% | 1009.8 hPa | 0 mm | 1.79 m/s, 204° | 291 W/m² | - |
| 1778138875 | 11.67° C | 83% | 1009.9 hPa | 0 mm | 0.89 m/s, 186° | 286 W/m² | - |
| 1778138815 | 11.67° C | 84% | 1009.7 hPa | 0 mm | 0.89 m/s, 200° | 318 W/m² | - |
| 1778138753 | 11.67° C | 83% | 1009.7 hPa | 0 mm | 1.34 m/s, 189° | 270 W/m² | - |
| 1778138693 | 11.11° C | 85% | 1009.5 hPa | 0 mm | 0.45 m/s, 223° | 286 W/m² | - |
| 1778138632 | 11.11° C | 86% | 1009.6 hPa | 0 mm | 0.89 m/s, 178° | 307 W/m² | - |
| 1778138570 | 11.11° C | 86% | 1009.6 hPa | 0 mm | 1.79 m/s, 176° | 311 W/m² | - |
| 1778138509 | 10.56° C | 87% | 1009.7 hPa | 0 mm | 1.34 m/s, 169° | 347 W/m² | - |
| 1778138448 | 10.56° C | 87% | 1009.6 hPa | 0 mm | 1.34 m/s, 194° | 306 W/m² | - |
| 1778138387 | 10.56° C | 87% | 1009.6 hPa | 0 mm | 0.45 m/s, 180° | 312 W/m² | - |
| 1778138326 | 10.56° C | 87% | 1009.6 hPa | 0 mm | 1.34 m/s, 174° | 232 W/m² | - |
| 1778138266 | 10.56° C | 87% | 1009.7 hPa | 0 mm | 1.34 m/s, 181° | 232 W/m² | - |
| 1778138204 | 10.56° C | 87% | 1009.6 hPa | 0 mm | 0.89 m/s, 211° | 223 W/m² | - |
| 1778138143 | 10.56° C | 87% | 1009.5 hPa | 0 mm | 0.89 m/s, 224° | 174 W/m² | - |
| 1778138082 | 10.56° C | 87% | 1009.6 hPa | 0 mm | 0.45 m/s, 206° | 140 W/m² | - |
| 1778138021 | 10.56° C | 88% | 1009.6 hPa | 0 mm | 0.45 m/s, 176° | 106 W/m² | - |
| 1778137960 | 10.56° C | 88% | 1009.6 hPa | 0 mm | 0.45 m/s, 175° | 102 W/m² | - |
| 1778137899 | 10.56° C | 88% | 1009.6 hPa | 0 mm | 0.45 m/s, 182° | 88 W/m² | - |
| 1778137838 | 10.56° C | 88% | 1009.6 hPa | 0 mm | 0.45 m/s, 177° | 90 W/m² | - |
* Rain latest hour (hover to see other rain measurements)
** Current wind speed in m/s (hover to see current wind gust speed)